BOE77UK VVTS-VTCT

Flight info

Callsign BOE77UK
Flight time 1h 47m
Altitude 40000
Route VVTS/25L SAPEN5A SAPEN R468 ELMOP P629 TIA W1 REP R345 ROT R470 VTN R207 NAN R215 DUBEN VTCT/03
Aircraft B772/H-SDE2E3FGHIJ5LORVWXY/LB1D1

Departure

Time 2026-05-06 13:16
Airport Tan Son Nhat International Airport (VVTS)

Arrival

Time 2026-05-06 15:04
Airport Mae Fah Luang - Chiang Rai International Airport (VTCT)
Time Latitude Longitude Altitude Speed Heading
2026-05-06 12:57 10.81834 106.66574 41 ft 0 kts 159°
2026-05-06 13:09 10.81835 106.66574 40 ft 2 kts 159°
2026-05-06 13:09 10.81867 106.66559 40 ft 4 kts 151°
2026-05-06 13:09 10.81883 106.66550 41 ft 4 kts 146°
2026-05-06 13:10 10.81903 106.66533 40 ft 4 kts 127°
2026-05-06 13:10 10.81913 106.66512 41 ft 3 kts 75°
2026-05-06 13:10 10.81912 106.66508 41 ft 1 kts 70°
2026-05-06 13:12 10.81922 106.66535 41 ft 7 kts 69°
2026-05-06 13:12 10.81952 106.66615 41 ft 14 kts 69°
2026-05-06 13:12 10.81987 106.66705 41 ft 14 kts 69°
2026-05-06 13:13 10.82020 106.66792 41 ft 12 kts 69°
2026-05-06 13:13 10.82052 106.66869 40 ft 12 kts 58°
2026-05-06 13:13 10.82112 106.66929 39 ft 13 kts 39°
2026-05-06 13:13 10.82180 106.66985 40 ft 13 kts 39°
2026-05-06 13:14 10.82239 106.67012 40 ft 9 kts 359°
2026-05-06 13:14 10.82282 106.67000 39 ft 6 kts 335°
2026-05-06 13:14 10.82312 106.66981 39 ft 0 kts 320°
2026-05-06 13:15 10.82346 106.66901 39 ft 15 kts 270°
2026-05-06 13:15 10.82325 106.66831 38 ft 0 kts 248°
2026-05-06 13:15 10.82268 106.66683 37 ft 62 kts 249°
2026-05-06 13:15 10.82007 106.65994 43 ft 144 kts 249°
2026-05-06 13:16 10.81589 106.64902 525 ft 169 kts 250°
2026-05-06 13:16 10.81173 106.63773 1464 ft 173 kts 251°
2026-05-06 13:16 10.80748 106.62600 2269 ft 186 kts 251°
2026-05-06 13:16 10.80267 106.61271 2776 ft 215 kts 250°
2026-05-06 13:17 10.79716 106.59749 3104 ft 243 kts 250°
2026-05-06 13:17 10.79582 106.57985 3482 ft 265 kts 285°
2026-05-06 13:17 10.80409 106.56270 3984 ft 276 kts 305°
2026-05-06 13:17 10.81475 106.54614 4840 ft 283 kts 304°
2026-05-06 13:18 10.82529 106.52909 5800 ft 285 kts 303°
2026-05-06 13:18 10.83563 106.51186 6752 ft 287 kts 302°
2026-05-06 13:18 10.84581 106.49446 7631 ft 290 kts 302°
2026-05-06 13:18 10.85607 106.47665 8461 ft 294 kts 302°
2026-05-06 13:19 10.86635 106.45861 9244 ft 297 kts 302°
2026-05-06 13:19 10.87671 106.44026 10038 ft 300 kts 301°
2026-05-06 13:19 10.88736 106.42132 10401 ft 320 kts 301°
2026-05-06 13:19 10.89883 106.40087 10592 ft 344 kts 301°
2026-05-06 13:20 10.91087 106.37915 11119 ft 359 kts 301°
2026-05-06 13:20 10.92331 106.35680 11918 ft 366 kts 301°
2026-05-06 13:20 10.93597 106.33414 12837 ft 371 kts 301°
2026-05-06 13:20 10.94877 106.31120 13637 ft 374 kts 300°
2026-05-06 13:21 10.96167 106.28801 13888 ft 380 kts 300°
2026-05-06 13:21 10.97475 106.26446 13863 ft 381 kts 300°
2026-05-06 13:21 10.98771 106.24111 13861 ft 378 kts 300°
2026-05-06 13:21 11.00064 106.21785 13859 ft 377 kts 300°
2026-05-06 13:22 11.01359 106.19457 13863 ft 377 kts 300°
2026-05-06 13:22 11.02599 106.17097 13949 ft 382 kts 295°
2026-05-06 13:22 11.03618 106.14590 14828 ft 385 kts 292°
2026-05-06 13:22 11.04565 106.12040 15787 ft 387 kts 291°
2026-05-06 13:23 11.05510 106.09494 16630 ft 391 kts 291°
2026-05-06 13:23 11.06511 106.06857 17417 ft 397 kts 292°
2026-05-06 13:23 11.07520 106.04258 18139 ft 402 kts 292°
2026-05-06 13:23 11.08564 106.01598 18862 ft 407 kts 292°
2026-05-06 13:24 11.09617 105.98909 19545 ft 410 kts 291°
2026-05-06 13:24 11.10387 105.96095 20123 ft 416 kts 279°
2026-05-06 13:24 11.10629 105.93145 20767 ft 420 kts 270°
2026-05-06 13:24 11.10386 105.90169 21383 ft 424 kts 261°
2026-05-06 13:25 11.09926 105.87185 21960 ft 428 kts 261°
2026-05-06 13:25 11.09455 105.84183 22532 ft 432 kts 261°
2026-05-06 13:25 11.08995 105.81146 23098 ft 436 kts 261°
2026-05-06 13:25 11.08551 105.78080 23618 ft 440 kts 261°
2026-05-06 13:26 11.08113 105.74975 24111 ft 444 kts 261°
2026-05-06 13:26 11.07719 105.71845 24598 ft 448 kts 265°
2026-05-06 13:26 11.07749 105.68665 25079 ft 452 kts 275°
2026-05-06 13:26 11.08244 105.65499 25573 ft 455 kts 283°
2026-05-06 13:27 11.09177 105.62412 26067 ft 457 kts 289°
2026-05-06 13:27 11.10262 105.59369 26535 ft 460 kts 290°
2026-05-06 13:27 11.11372 105.56303 26986 ft 463 kts 290°
2026-05-06 13:27 11.12472 105.53250 27448 ft 466 kts 290°
2026-05-06 13:28 11.13579 105.50142 27926 ft 468 kts 289°
2026-05-06 13:28 11.14682 105.47014 28363 ft 471 kts 289°
2026-05-06 13:28 11.15785 105.43858 28795 ft 475 kts 289°
2026-05-06 13:28 11.16891 105.40676 29245 ft 477 kts 289°
2026-05-06 13:29 11.17998 105.37484 29670 ft 479 kts 289°
2026-05-06 13:29 11.19114 105.34265 30077 ft 482 kts 289°
2026-05-06 13:29 11.20236 105.31032 30477 ft 486 kts 289°
2026-05-06 13:29 11.21364 105.27780 30883 ft 488 kts 289°
2026-05-06 13:30 11.22497 105.24511 31294 ft 490 kts 289°
2026-05-06 13:30 11.23634 105.21230 31673 ft 492 kts 289°
2026-05-06 13:30 11.24780 105.17925 32043 ft 495 kts 289°
2026-05-06 13:30 11.25911 105.14657 32384 ft 497 kts 289°
2026-05-06 13:31 11.27064 105.11330 32690 ft 499 kts 289°
2026-05-06 13:31 11.28220 105.07989 33019 ft 501 kts 289°
2026-05-06 13:31 11.29381 105.04631 33333 ft 502 kts 289°
2026-05-06 13:31 11.30542 105.01277 33715 ft 501 kts 289°
2026-05-06 13:32 11.31697 104.97938 34189 ft 498 kts 289°
2026-05-06 13:32 11.32927 104.94648 34552 ft 495 kts 296°
2026-05-06 13:32 11.34867 104.91757 34770 ft 497 kts 314°
2026-05-06 13:32 11.37532 104.89524 35101 ft 497 kts 328°
2026-05-06 13:33 11.40643 104.88037 35465 ft 494 kts 341°
2026-05-06 13:33 11.43922 104.86972 35751 ft 495 kts 342°
2026-05-06 13:33 11.47210 104.85936 36079 ft 495 kts 342°
2026-05-06 13:33 11.50497 104.84896 36483 ft 494 kts 342°
2026-05-06 13:34 11.53765 104.83845 36915 ft 491 kts 342°
2026-05-06 13:34 11.57006 104.82786 37391 ft 487 kts 341°
2026-05-06 13:34 11.60221 104.81720 37830 ft 484 kts 341°
2026-05-06 13:34 11.63413 104.80652 38229 ft 481 kts 340°
2026-05-06 13:35 11.66587 104.79585 38613 ft 479 kts 340°
2026-05-06 13:35 11.69753 104.78519 38879 ft 479 kts 340°
2026-05-06 13:35 11.72924 104.77452 39098 ft 480 kts 340°
2026-05-06 13:35 11.76099 104.76383 39351 ft 480 kts 340°
2026-05-06 13:36 11.79271 104.75315 39623 ft 480 kts 340°
2026-05-06 13:36 11.82446 104.74248 39780 ft 482 kts 340°
2026-05-06 13:36 11.85636 104.73175 39831 ft 485 kts 340°
2026-05-06 13:37 11.92062 104.71015 39844 ft 484 kts 340°
2026-05-06 13:37 11.98405 104.68884 39845 ft 478 kts 340°
2026-05-06 13:38 12.04713 104.66761 39851 ft 477 kts 340°
2026-05-06 13:38 12.10971 104.64651 39851 ft 477 kts 340°
2026-05-06 13:39 12.17276 104.62527 39853 ft 477 kts 340°
2026-05-06 13:39 12.23600 104.60396 39859 ft 478 kts 340°
2026-05-06 13:40 12.29925 104.58262 39859 ft 479 kts 340°
2026-05-06 13:40 12.36261 104.56124 39864 ft 480 kts 340°
2026-05-06 13:41 12.42608 104.53980 39863 ft 481 kts 340°
2026-05-06 13:41 12.48964 104.51833 39862 ft 481 kts 340°
2026-05-06 13:42 12.55332 104.49680 39862 ft 481 kts 340°
2026-05-06 13:42 12.61661 104.47541 39860 ft 482 kts 340°
2026-05-06 13:43 12.68026 104.45388 39860 ft 482 kts 340°
2026-05-06 13:43 12.74388 104.43234 39861 ft 481 kts 340°
2026-05-06 13:44 12.80752 104.41077 39860 ft 481 kts 340°
2026-05-06 13:44 12.87109 104.38922 39860 ft 480 kts 340°
2026-05-06 13:45 12.93452 104.36740 39862 ft 480 kts 340°
2026-05-06 13:45 13.02930 104.33464 39860 ft 479 kts 340°
2026-05-06 13:46 13.09214 104.31294 39862 ft 479 kts 340°
2026-05-06 13:46 13.15527 104.29114 39859 ft 479 kts 340°
2026-05-06 13:47 13.21838 104.26933 39862 ft 479 kts 340°
2026-05-06 13:47 13.28158 104.24748 39861 ft 479 kts 340°
2026-05-06 13:48 13.34474 104.22562 39862 ft 479 kts 340°
2026-05-06 13:48 13.40708 104.20149 39861 ft 478 kts 336°
2026-05-06 13:49 13.46862 104.17532 39862 ft 479 kts 336°
2026-05-06 13:49 13.52983 104.14930 39862 ft 479 kts 336°
2026-05-06 13:50 13.59106 104.12351 39861 ft 479 kts 336°
2026-05-06 13:50 13.65275 104.09763 39865 ft 479 kts 336°
2026-05-06 13:51 13.71452 104.07171 39860 ft 479 kts 336°
2026-05-06 13:51 13.77627 104.04572 39860 ft 479 kts 336°
2026-05-06 13:52 13.83809 104.01971 39861 ft 479 kts 336°
2026-05-06 13:52 13.89948 103.99384 39860 ft 479 kts 336°
2026-05-06 13:53 13.96122 103.96781 39863 ft 479 kts 336°
2026-05-06 13:53 14.02285 103.94177 39860 ft 479 kts 336°
2026-05-06 13:54 14.08450 103.91573 39862 ft 479 kts 336°
2026-05-06 13:54 14.14620 103.88964 39861 ft 479 kts 336°
2026-05-06 13:55 14.20745 103.86372 39861 ft 478 kts 336°
2026-05-06 13:55 14.26907 103.83764 39861 ft 479 kts 336°
2026-05-06 13:56 14.33089 103.81203 39860 ft 479 kts 340°
2026-05-06 13:56 14.38523 103.79873 39868 ft 481 kts 350°
2026-05-06 13:57 14.45210 103.79485 39869 ft 482 kts 358°
2026-05-06 13:57 14.51926 103.79483 39861 ft 483 kts 359°
2026-05-06 13:58 14.58595 103.79449 39860 ft 482 kts 358°
2026-05-06 13:58 14.65278 103.79418 40085 ft 476 kts 359°
2026-05-06 13:59 14.68615 103.79389 39934 ft 480 kts 358°
2026-05-06 13:59 14.71957 103.79320 39907 ft 481 kts 358°
2026-05-06 13:59 14.78665 103.79211 39872 ft 483 kts 358°
2026-05-06 14:00 14.85405 103.79158 39868 ft 484 kts 359°
2026-05-06 14:00 14.92149 103.79124 39864 ft 485 kts 358°
2026-05-06 14:01 14.98854 103.79060 39862 ft 484 kts 358°
2026-05-06 14:01 15.05591 103.78910 39860 ft 483 kts 358°
2026-05-06 14:02 15.12308 103.78763 39859 ft 482 kts 358°
2026-05-06 14:02 15.19020 103.78636 39863 ft 481 kts 358°
2026-05-06 14:03 15.25712 103.78534 39859 ft 480 kts 358°
2026-05-06 14:03 15.32392 103.78436 39861 ft 480 kts 358°
2026-05-06 14:04 15.39072 103.78334 39861 ft 479 kts 358°
2026-05-06 14:04 15.45688 103.78231 39860 ft 479 kts 358°
2026-05-06 14:05 15.52342 103.78126 39859 ft 478 kts 358°
2026-05-06 14:05 15.58998 103.78022 39863 ft 478 kts 358°
2026-05-06 14:06 15.65659 103.77921 39860 ft 478 kts 358°
2026-05-06 14:06 15.72324 103.77817 39862 ft 478 kts 358°
2026-05-06 14:07 15.78974 103.77713 39861 ft 478 kts 358°
2026-05-06 14:07 15.85637 103.77608 39861 ft 478 kts 358°
2026-05-06 14:08 15.92291 103.77504 39860 ft 478 kts 358°
2026-05-06 14:08 15.98936 103.77400 39862 ft 478 kts 358°
2026-05-06 14:09 16.05553 103.77297 39861 ft 478 kts 358°
2026-05-06 14:09 16.12043 103.76145 39859 ft 475 kts 338°
2026-05-06 14:10 16.17744 103.72716 39874 ft 474 kts 322°
2026-05-06 14:10 16.22961 103.68526 39863 ft 475 kts 322°
2026-05-06 14:11 16.28211 103.64344 39862 ft 476 kts 322°
2026-05-06 14:11 16.33504 103.60198 39863 ft 476 kts 322°
2026-05-06 14:12 16.38814 103.56056 39861 ft 476 kts 322°
2026-05-06 14:12 16.44118 103.51913 39862 ft 476 kts 322°
2026-05-06 14:13 16.49417 103.47766 39862 ft 476 kts 322°
2026-05-06 14:13 16.54683 103.43646 39861 ft 476 kts 322°
2026-05-06 14:14 16.59976 103.39499 39857 ft 476 kts 322°
2026-05-06 14:14 16.65269 103.35344 39852 ft 475 kts 322°
2026-05-06 14:15 16.70553 103.31197 39851 ft 475 kts 322°
2026-05-06 14:15 16.75834 103.27047 39853 ft 475 kts 322°
2026-05-06 14:16 16.81110 103.22898 39853 ft 475 kts 322°
2026-05-06 14:16 16.86379 103.18752 39850 ft 475 kts 322°
2026-05-06 14:17 16.91653 103.14597 39854 ft 475 kts 322°
2026-05-06 14:17 16.96925 103.10444 39843 ft 475 kts 322°
2026-05-06 14:18 17.02194 103.06287 39864 ft 474 kts 322°
2026-05-06 14:18 17.07466 103.02118 39867 ft 475 kts 322°
2026-05-06 14:19 17.12736 102.97944 39863 ft 475 kts 322°
2026-05-06 14:19 17.18003 102.93770 39861 ft 475 kts 322°
2026-05-06 14:20 17.23237 102.89620 39861 ft 475 kts 322°
2026-05-06 14:20 17.28510 102.85436 39860 ft 475 kts 322°
2026-05-06 14:21 17.33780 102.81252 39863 ft 475 kts 322°
2026-05-06 14:21 17.39321 102.77473 39865 ft 477 kts 331°
2026-05-06 14:22 17.45440 102.74785 39865 ft 478 kts 339°
2026-05-06 14:22 17.51722 102.72501 39861 ft 478 kts 340°
2026-05-06 14:23 17.57972 102.70202 39863 ft 478 kts 339°
2026-05-06 14:23 17.64231 102.67857 39857 ft 478 kts 339°
2026-05-06 14:24 17.70499 102.65497 39849 ft 478 kts 339°
2026-05-06 14:24 17.76749 102.63147 39860 ft 477 kts 339°
2026-05-06 14:25 17.82998 102.60793 39863 ft 477 kts 339°
2026-05-06 14:25 17.89254 102.58434 39861 ft 477 kts 339°
2026-05-06 14:26 17.95458 102.56094 39860 ft 477 kts 339°
2026-05-06 14:26 17.98457 102.54662 39847 ft 473 kts 326°
2026-05-06 14:26 18.01006 102.52504 39865 ft 471 kts 313°
2026-05-06 14:27 18.03034 102.49817 39870 ft 470 kts 300°
2026-05-06 14:27 18.04497 102.46761 39871 ft 467 kts 294°
2026-05-06 14:27 18.07228 102.40547 39862 ft 470 kts 294°
2026-05-06 14:28 18.09998 102.34322 39857 ft 472 kts 295°
2026-05-06 14:28 18.12824 102.28075 39854 ft 473 kts 295°
2026-05-06 14:29 18.15668 102.21829 39851 ft 475 kts 295°
2026-05-06 14:29 18.18522 102.15555 39851 ft 475 kts 295°
2026-05-06 14:30 18.21377 102.09271 39844 ft 476 kts 295°
2026-05-06 14:30 18.24222 102.02999 39840 ft 475 kts 295°
2026-05-06 14:31 18.27044 101.96771 39844 ft 474 kts 295°
2026-05-06 14:31 18.29876 101.90511 39841 ft 473 kts 295°
2026-05-06 14:32 18.32704 101.84256 39837 ft 472 kts 295°
2026-05-06 14:32 18.35524 101.78018 39833 ft 471 kts 295°
2026-05-06 14:33 18.38334 101.71787 39835 ft 471 kts 295°
2026-05-06 14:33 18.41138 101.65564 39816 ft 470 kts 295°
2026-05-06 14:34 18.43938 101.59342 39828 ft 469 kts 295°
2026-05-06 14:34 18.46730 101.53133 39826 ft 469 kts 295°
2026-05-06 14:35 18.49518 101.46930 39830 ft 468 kts 295°
2026-05-06 14:35 18.52284 101.40765 39826 ft 468 kts 295°
2026-05-06 14:36 18.55060 101.34573 39549 ft 467 kts 294°
2026-05-06 14:36 18.56446 101.31481 38954 ft 465 kts 295°
2026-05-06 14:36 18.57823 101.28407 38269 ft 463 kts 295°
2026-05-06 14:37 18.59196 101.25339 37529 ft 462 kts 295°
2026-05-06 14:37 18.60570 101.22267 36756 ft 462 kts 295°
2026-05-06 14:37 18.61946 101.19215 35959 ft 462 kts 295°
2026-05-06 14:37 18.63356 101.16166 35054 ft 461 kts 296°
2026-05-06 14:38 18.64777 101.13122 34165 ft 463 kts 296°
2026-05-06 14:38 18.66196 101.10084 33503 ft 460 kts 296°
2026-05-06 14:38 18.67602 101.07068 32849 ft 459 kts 296°
2026-05-06 14:38 18.69008 101.04042 32203 ft 458 kts 295°
2026-05-06 14:39 18.70402 101.01034 31587 ft 457 kts 295°
2026-05-06 14:39 18.71795 100.98024 30970 ft 455 kts 295°
2026-05-06 14:39 18.73158 100.95076 30441 ft 451 kts 295°
2026-05-06 14:39 18.74548 100.92066 29839 ft 449 kts 295°
2026-05-06 14:40 18.75892 100.89155 29220 ft 448 kts 295°
2026-05-06 14:40 18.77253 100.86207 28565 ft 447 kts 295°
2026-05-06 14:40 18.78613 100.83264 27925 ft 445 kts 296°
2026-05-06 14:40 18.80155 100.80436 27241 ft 445 kts 304°
2026-05-06 14:41 18.82086 100.77888 26593 ft 444 kts 311°
2026-05-06 14:41 18.84270 100.75601 25930 ft 437 kts 318°
2026-05-06 14:41 18.86672 100.73672 25301 ft 429 kts 323°
2026-05-06 14:41 18.89065 100.71836 24703 ft 425 kts 322°
2026-05-06 14:42 18.91450 100.69997 24097 ft 422 kts 322°
2026-05-06 14:42 18.93804 100.68173 23489 ft 417 kts 322°
2026-05-06 14:42 18.96129 100.66362 22894 ft 413 kts 322°
2026-05-06 14:42 18.98427 100.64566 22331 ft 409 kts 322°
2026-05-06 14:43 19.00700 100.62784 21775 ft 405 kts 322°
2026-05-06 14:43 19.02949 100.61017 21222 ft 401 kts 322°
2026-05-06 14:43 19.05177 100.59266 20680 ft 397 kts 322°
2026-05-06 14:43 19.07385 100.57530 20144 ft 394 kts 322°
2026-05-06 14:44 19.09576 100.55809 19620 ft 391 kts 322°
2026-05-06 14:44 19.11747 100.54101 19089 ft 387 kts 322°
2026-05-06 14:44 19.13899 100.52408 18577 ft 384 kts 322°
2026-05-06 14:45 19.17439 100.49623 17726 ft 379 kts 322°
2026-05-06 14:45 19.19549 100.47962 17213 ft 376 kts 322°
2026-05-06 14:45 19.21637 100.46317 16714 ft 372 kts 322°
2026-05-06 14:45 19.23683 100.44705 16220 ft 364 kts 322°
2026-05-06 14:46 19.25707 100.43111 15738 ft 361 kts 321°
2026-05-06 14:46 19.27715 100.41528 15251 ft 359 kts 321°
2026-05-06 14:46 19.29714 100.39953 14749 ft 356 kts 321°
2026-05-06 14:46 19.31693 100.38392 14275 ft 353 kts 321°
2026-05-06 14:47 19.33652 100.36846 13777 ft 351 kts 321°
2026-05-06 14:47 19.35605 100.35305 13281 ft 348 kts 321°
2026-05-06 14:47 19.37515 100.33797 12809 ft 345 kts 321°
2026-05-06 14:47 19.39431 100.32284 12329 ft 342 kts 321°
2026-05-06 14:48 19.41336 100.30780 11844 ft 339 kts 321°
2026-05-06 14:48 19.43222 100.29289 11360 ft 337 kts 321°
2026-05-06 14:48 19.45095 100.27808 10877 ft 335 kts 321°
2026-05-06 14:48 19.46947 100.26342 10553 ft 323 kts 321°
2026-05-06 14:49 19.48679 100.24974 10406 ft 302 kts 321°
2026-05-06 14:49 19.50309 100.23682 10277 ft 291 kts 321°
2026-05-06 14:49 19.51896 100.22427 10169 ft 281 kts 321°
2026-05-06 14:49 19.53437 100.21207 10046 ft 272 kts 321°
2026-05-06 14:50 19.54720 100.19807 9906 ft 264 kts 298°
2026-05-06 14:50 19.55392 100.17954 9805 ft 273 kts 285°
2026-05-06 14:50 19.55938 100.16038 9616 ft 268 kts 286°
2026-05-06 14:50 19.56472 100.14173 9457 ft 261 kts 286°
2026-05-06 14:51 19.56991 100.12364 9300 ft 253 kts 286°
2026-05-06 14:51 19.57493 100.10609 9150 ft 245 kts 286°
2026-05-06 14:51 19.57981 100.08911 9009 ft 236 kts 286°
2026-05-06 14:51 19.58452 100.07280 8871 ft 233 kts 286°
2026-05-06 14:52 19.58918 100.05658 8730 ft 226 kts 286°
2026-05-06 14:52 19.59368 100.04100 8594 ft 216 kts 285°
2026-05-06 14:52 19.59801 100.02599 8462 ft 210 kts 286°
2026-05-06 14:52 19.60227 100.01130 8353 ft 209 kts 285°
2026-05-06 14:53 19.60653 99.99650 8260 ft 209 kts 285°
2026-05-06 14:53 19.61069 99.98188 8168 ft 206 kts 285°
2026-05-06 14:53 19.61485 99.96759 8005 ft 199 kts 285°
2026-05-06 14:53 19.61889 99.95369 7891 ft 201 kts 285°
2026-05-06 14:54 19.62304 99.93926 7784 ft 207 kts 285°
2026-05-06 14:54 19.62727 99.92463 7658 ft 208 kts 285°
2026-05-06 14:54 19.63150 99.90995 7515 ft 208 kts 285°
2026-05-06 14:54 19.63569 99.89533 7395 ft 207 kts 285°
2026-05-06 14:55 19.63982 99.88100 7255 ft 198 kts 285°
2026-05-06 14:55 19.64377 99.86736 7129 ft 191 kts 285°
2026-05-06 14:55 19.64764 99.85396 7031 ft 189 kts 285°
2026-05-06 14:55 19.65213 99.84097 6915 ft 193 kts 295°
2026-05-06 14:56 19.65889 99.82821 6820 ft 199 kts 298°
2026-05-06 14:56 19.66577 99.81556 6686 ft 200 kts 298°
2026-05-06 14:56 19.67259 99.80280 6554 ft 198 kts 297°
2026-05-06 14:56 19.67935 99.79008 6418 ft 197 kts 297°
2026-05-06 14:57 19.68603 99.77745 6295 ft 195 kts 297°
2026-05-06 14:57 19.69373 99.76579 6134 ft 192 kts 317°
2026-05-06 14:57 19.70499 99.75846 6049 ft 189 kts 336°
2026-05-06 14:57 19.71748 99.75419 5834 ft 188 kts 341°
2026-05-06 14:58 19.73039 99.75260 5569 ft 190 kts 14°
2026-05-06 14:58 19.74204 99.75900 5386 ft 191 kts 34°
2026-05-06 14:58 19.75367 99.76630 5164 ft 195 kts 29°
2026-05-06 14:58 19.76551 99.77322 4926 ft 192 kts 29°
2026-05-06 14:59 19.77724 99.78007 4699 ft 194 kts 29°
2026-05-06 14:59 19.78905 99.78702 4471 ft 194 kts 29°
2026-05-06 14:59 19.80082 99.79393 4241 ft 192 kts 29°
2026-05-06 14:59 19.81247 99.80079 4007 ft 191 kts 29°
2026-05-06 15:00 19.82408 99.80759 3799 ft 190 kts 29°
2026-05-06 15:00 19.83519 99.81412 3579 ft 179 kts 29°
2026-05-06 15:00 19.84592 99.82043 3351 ft 175 kts 29°
2026-05-06 15:00 19.85637 99.82657 3136 ft 164 kts 29°
2026-05-06 15:01 19.86614 99.83232 2937 ft 158 kts 29°
2026-05-06 15:01 19.87539 99.83774 2735 ft 146 kts 29°
2026-05-06 15:01 19.88408 99.84286 2581 ft 141 kts 29°
2026-05-06 15:01 19.89263 99.84789 2387 ft 141 kts 29°
2026-05-06 15:02 19.90123 99.85294 2193 ft 141 kts 29°
2026-05-06 15:02 19.90979 99.85797 2003 ft 140 kts 29°
2026-05-06 15:02 19.91831 99.86299 1819 ft 140 kts 29°
2026-05-06 15:02 19.92682 99.86798 1627 ft 140 kts 28°
2026-05-06 15:03 19.93526 99.87295 1442 ft 138 kts 29°
2026-05-06 15:03 19.94367 99.87789 1302 ft 134 kts 28°
2026-05-06 15:03 19.95086 99.88210 1287 ft 98 kts 28°
2026-05-06 15:03 19.95577 99.88496 1289 ft 67 kts 28°
2026-05-06 15:04 19.95815 99.88630 1290 ft 25 kts 22°
2026-05-06 15:04 19.95965 99.88663 1289 ft 20 kts
2026-05-06 15:04 19.96077 99.88649 1289 ft 12 kts 328°
2026-05-06 15:04 19.96068 99.88576 1290 ft 12 kts 217°
2026-05-06 15:05 19.95984 99.88529 1290 ft 16 kts 208°
2026-05-06 15:05 19.95879 99.88467 1290 ft 18 kts 209°
2026-05-06 15:05 19.95772 99.88404 1290 ft 18 kts 209°
2026-05-06 15:05 19.95666 99.88342 1290 ft 18 kts 209°
2026-05-06 15:06 19.95559 99.88279 1290 ft 18 kts 208°
2026-05-06 15:06 19.95501 99.88196 1290 ft 14 kts 281°
2026-05-06 15:06 19.95432 99.88122 1290 ft 16 kts 207°
2026-05-06 15:06 19.95388 99.88078 1290 ft 3 kts 303°
2026-05-06 15:07 19.95413 99.88035 1290 ft 1 kts 300°
2026-05-06 15:07 19.95421 99.88018 1290 ft 3 kts 299°
2026-05-06 15:07 19.95424 99.88013 1290 ft 0 kts 299°